EW8856 Weather Reports


Display with metric or nautical units.
time (UTC)temp
F
wind
direction
speed
MPH
gust
MPH
rain 1hr
in
rain 24hr
in
rain mn
in
humidity
%
barometer
mb
20260506091003 54 0 0.0 0.0 0.00 0.02 0.00 92 1017.5
20260506090503 54 0 0.0 0.0 0.00 0.02 0.00 92 1017.4
20260506090003 54 0 0.0 0.0 0.00 0.02 0.00 91 1017.5
20260506085503 54 0 0.0 0.0 0.00 0.02 0.00 91 1017.5
20260506085003 54 0 0.0 0.0 0.00 0.02 0.00 91 1017.5
20260506084503 54 0 0.0 0.0 0.00 0.03 0.00 91 1017.5
20260506084003 54 0 0.0 0.0 0.00 0.03 0.00 91 1017.6
20260506083503 54 0 0.0 0.0 0.00 0.03 0.00 91 1017.6
20260506083003 54 0 0.0 0.0 0.00 0.03 0.00 91 1017.5
20260506082503 54 0 0.0 0.0 0.00 0.03 0.00 91 1017.6
20260506082003 54 0 0.0 0.0 0.00 0.03 0.00 91 1017.6
20260506081503 54 0 0.0 0.0 0.00 0.03 0.00 91 1017.6
20260506081003 54 0 0.0 0.0 0.00 0.03 0.00 90 1017.6
20260506080503 54 0 0.0 0.0 0.00 0.03 0.00 90 1017.7
20260506073503 54 0 0.0 0.0 0.00 0.03 0.00 91 1017.4
20260506073003 54 0 0.0 0.0 0.00 0.03 0.00 90 1017.4
20260506072503 54 0 0.0 0.0 0.00 0.03 0.00 90 1017.3
20260506072003 54 0 0.0 0.0 0.00 0.03 0.00 90 1017.3
20260506071524 54 236 0.0 1.0 0.00 0.03 0.00 90 1017.2
20260506071003 54 236 1.0 3.0 0.00 0.04 0.00 90 1017.2
20260506070503 54 239 1.0 4.0 0.00 0.04 0.00 90 1017.1
20260506062503 55 244 2.0 8.0 0.00 0.08 0.05 89 1016.8
20260506062003 55 308 3.0 8.0 0.00 0.08 0.05 89 1016.7
20260506061503 56 360 3.0 6.0 0.00 0.08 0.05 89 1016.6
20260506061024 56 360 2.0 6.0 0.00 0.08 0.05 88 1016.6
20260506060524 56 360 0.0 5.0 0.00 0.08 0.05 88 1016.6
20260506051003 56 0 0.0 0.0 0.00 0.11 0.05 85 1016.1
20260506050503 56 0 0.0 0.0 0.00 0.11 0.05 85 1016.1
20260506045024 57 0 0.0 0.0 0.00 0.11 0.05 85 1015.9
20260506044503 57 0 0.0 0.0 0.00 0.11 0.05 84 1015.9
20260506044024 57 0 0.0 0.0 0.00 0.11 0.05 84 1015.9
20260506043503 57 0 0.0 0.0 0.00 0.11 0.05 84 1015.9
20260506043024 57 0 0.0 0.0 0.00 0.11 0.05 84 1015.8
20260506042503 57 0 0.0 0.0 0.00 0.12 0.05 84 1015.7
20260506042003 56 0 0.0 0.0 0.00 0.12 0.05 84 1015.6
20260506041503 56 0 0.0 0.0 0.00 0.12 0.05 84 1015.5
20260506041003 56 0 0.0 0.0 0.00 0.13 0.05 85 1015.4
20260506040503 56 0 0.0 0.0 0.00 0.13 0.05 85 1015.2
20260506040003 56 0 0.0 0.0 0.00 0.14 0.05 86 1015.3
20260506035503 56 0 0.0 0.0 0.00 0.14 0.05 86 1015.3
20260506035003 56 0 0.0 0.0 0.00 0.15 0.05 87 1015.4
20260506034503 56 0 0.0 0.0 0.00 0.15 0.05 87 1015.4
20260506034024 56 0 0.0 0.0 0.00 0.16 0.05 87 1015.4
20260506033524 56 0 0.0 0.0 0.00 0.16 0.05 87 1015.3
20260506033024 56 0 0.0 0.0 0.00 0.17 0.05 87 1015.2
20260506032503 57 0 0.0 0.0 0.00 0.17 0.05 87 1015.1
20260506032003 57 0 0.0 0.0 0.00 0.17 0.05 87 1015.1
20260506031503 57 0 0.0 0.0 0.00 0.18 0.05 86 1014.9
20260506031024 57 0 0.0 0.0 0.00 0.19 0.05 86 1014.8
20260506030503 57 0 0.0 0.0 0.00 0.20 0.05 85 1014.7
20260506030003 57 0 0.0 0.0 0.00 0.21 0.05 85 1014.7
20260506025503 57 0 0.0 0.0 0.00 0.21 0.05 84 1014.7
20260506025003 57 0 0.0 0.0 0.00 0.22 0.05 84 1014.7
20260506024503 57 360 0.0 2.0 0.00 0.22 0.05 84 1014.6
20260506024003 57 360 0.0 2.0 0.00 0.22 0.05 83 1014.5
20260506023503 57 360 0.0 2.0 0.00 0.22 0.05 83 1014.4
20260506023003 57 360 1.0 3.0 0.00 0.22 0.05 83 1014.4
20260506022506 58 360 2.0 4.0 0.00 0.22 0.05 83 1014.5
20260506022024 58 360 3.0 5.0 0.00 0.23 0.05 82 1014.3
20260506021503 58 360 3.0 5.0 0.00 0.23 0.05 82 1014.1
20260506021003 58 360 3.0 5.0 0.00 0.23 0.05 82 1014.2
20260506020524 58 360 3.0 4.0 0.00 0.23 0.05 83 1014.2
20260506020003 58 360 2.0 4.0 0.00 0.23 0.05 82 1014.4
20260506015503 58 360 1.0 4.0 0.00 0.24 0.05 82 1014.4
20260506015003 58 360 1.0 4.0 0.00 0.24 0.05 82 1014.4
20260506014503 58 360 2.0 4.0 0.00 0.24 0.05 81 1014.4
20260506014003 58 360 2.0 5.0 0.00 0.24 0.05 82 1014.3
20260506013524 58 360 2.0 5.0 0.00 0.24 0.05 82 1014.3
20260506013003 58 360 2.0 5.0 0.00 0.24 0.05 82 1014.3
20260506012503 58 360 2.0 5.0 0.00 0.24 0.05 82 1014.4
20260506012003 58 360 3.0 5.0 0.00 0.24 0.05 81 1014.4
20260506011503 58 360 3.0 5.0 0.00 0.24 0.05 82 1014.4
20260506011024 58 360 2.0 5.0 0.00 0.24 0.05 82 1014.3
20260506010504 59 360 2.0 5.0 0.00 0.25 0.05 81 1014.3
20260506010003 59 360 2.0 5.0 0.00 0.25 0.05 81 1014.2
20260506005524 59 360 1.0 5.0 0.00 0.25 0.05 81 1014.2
20260506005003 59 360 1.0 4.0 0.00 0.25 0.05 82 1014.1
20260506004503 58 360 2.0 5.0 0.00 0.25 0.05 82 1014.1
20260506004003 58 360 2.0 5.0 0.00 0.25 0.05 81 1014.1
20260506003503 59 360 2.0 4.0 0.00 0.25 0.05 81 1014.1
20260506003003 59 360 2.0 5.0 0.00 0.26 0.05 81 1014.1
20260506002503 59 360 1.0 5.0 0.00 0.26 0.05 82 1014.1
20260506002003 59 360 2.0 4.0 0.00 0.26 0.05 82 1014.1
20260506001503 59 360 2.0 4.0 0.00 0.27 0.05 81 1014.1
20260506001003 59 360 2.0 5.0 0.00 0.28 0.05 82 1014.1
20260506000503 59 360 3.0 8.0 0.00 0.29 0.05 81 1013.9
20260506000024 59 360 3.0 8.0 0.00 0.30 0.05 80 1014.1
20260505235524 59 360 2.0 6.0 0.00 0.30 0.05 80 1014.0
20260505235003 59 360 2.0 5.0 0.00 0.31 0.05 81 1014.0
20260505234503 59 360 3.0 6.0 0.00 0.31 0.05 81 1013.9
20260505234003 59 360 3.0 6.0 0.00 0.31 0.05 80 1013.9
20260505233503 59 360 3.0 6.0 0.00 0.31 0.05 81 1013.9
20260505233003 59 360 2.0 5.0 0.00 0.31 0.05 80 1013.9
20260505232503 59 360 2.0 4.0 0.00 0.32 0.05 80 1013.9
20260505232024 59 360 3.0 5.0 0.00 0.32 0.05 80 1013.9
20260505231503 59 360 3.0 5.0 0.00 0.33 0.05 80 1013.9
20260505231003 59 360 3.0 5.0 0.00 0.33 0.05 80 1014.0
20260505230503 59 360 2.0 5.0 0.00 0.34 0.05 79 1014.0
20260505230003 59 360 2.0 4.0 0.00 0.35 0.05 81 1014.0
20260505225503 59 360 2.0 4.0 0.00 0.35 0.05 80 1013.9
20260505225003 59 360 3.0 4.0 0.00 0.36 0.05 81 1013.9
20260505224503 59 360 2.0 5.0 0.00 0.36 0.05 80 1013.9
20260505224003 59 360 2.0 5.0 0.00 0.36 0.05 79 1014.0
20260505223503 59 360 3.0 6.0 0.00 0.36 0.05 79 1014.0
20260505223003 59 360 2.0 6.0 0.00 0.37 0.05 79 1014.0
20260505222506 59 360 2.0 4.0 0.00 0.37 0.05 80 1014.1
20260505222003 58 360 1.0 4.0 0.00 0.37 0.05 80 1014.1
20260505221503 58 360 1.0 3.0 0.00 0.38 0.05 79 1014.2
20260505221003 58 360 2.0 4.0 0.00 0.38 0.05 79 1014.2
20260505220503 59 360 2.0 5.0 0.00 0.38 0.05 80 1014.3
20260505220003 59 360 1.0 5.0 0.00 0.38 0.05 80 1014.3
20260505215503 58 360 1.0 4.0 0.00 0.38 0.05 81 1014.3
20260505215003 58 360 1.0 4.0 0.00 0.38 0.05 81 1014.3
20260505214503 58 360 2.0 5.0 0.00 0.39 0.05 80 1014.3
20260505214003 58 360 2.0 5.0 0.00 0.39 0.05 81 1014.3
20260505213503 58 360 2.0 6.0 0.00 0.39 0.05 83 1014.3
20260505213003 57 360 2.0 6.0 0.00 0.40 0.05 82 1014.3
20260505212506 57 360 1.0 6.0 0.00 0.40 0.05 82 1014.3
20260505212003 57 360 1.0 5.0 0.00 0.40 0.05 82 1014.3
20260505211503 57 360 2.0 5.0 0.00 0.40 0.05 83 1014.3
20260505211003 57 360 2.0 6.0 0.00 0.40 0.05 83 1014.3
20260505210524 58 360 2.0 6.0 0.00 0.40 0.05 82 1014.3
20260505210024 58 360 2.0 9.0 0.00 0.41 0.05 82 1014.3
20260505205503 58 340 2.0 9.0 0.00 0.41 0.05 81 1014.3
20260505205003 58 200 3.0 7.0 0.00 0.41 0.05 81 1014.3
20260505204503 59 199 3.0 7.0 0.00 0.41 0.05 80 1014.3
20260505204003 59 220 3.0 7.0 0.00 0.41 0.05 82 1014.3
20260505203503 59 238 3.0 7.0 0.00 0.41 0.05 81 1014.2
20260505203003 59 320 3.0 9.0 0.00 0.41 0.05 82 1014.2
20260505202503 58 360 4.0 9.0 0.00 0.41 0.05 83 1014.2
20260505202003 58 360 3.0 8.0 0.00 0.41 0.05 83 1014.2
20260505201503 58 360 3.0 9.0 0.00 0.41 0.05 83 1014.2
20260505201003 58 357 3.0 9.0 0.00 0.41 0.05 83 1014.3
20260505200524 58 307 2.0 5.0 0.00 0.41 0.05 82 1014.3
20260505200024 58 251 2.0 5.0 0.00 0.41 0.05 83 1014.4
20260505195524 58 2 2.0 5.0 0.00 0.41 0.05 83 1014.4
20260505195002 58 360 2.0 5.0 0.00 0.42 0.05 84 1014.4
20260505194503 57 360 3.0 9.0 0.00 0.42 0.05 85 1014.5
20260505194003 57 360 4.0 9.0 0.00 0.42 0.05 85 1014.5
20260505193503 57 360 4.0 8.0 0.00 0.42 0.05 84 1014.4
20260505193003 57 360 2.0 6.0 0.00 0.42 0.05 85 1014.5
20260505192503 57 360 2.0 6.0 0.00 0.42 0.05 85 1014.5
20260505192003 56 360 3.0 6.0 0.00 0.42 0.05 85 1014.4
20260505191524 56 360 3.0 6.0 0.00 0.43 0.05 86 1014.5
20260505191003 56 360 3.0 6.0 0.00 0.43 0.05 86 1014.4
20260505190503 56 360 3.0 6.0 0.00 0.45 0.05 85 1014.4
20260505190024 56 360 3.0 8.0 0.00 0.45 0.05 87 1014.4
20260505185503 56 360 3.0 8.0 0.00 0.46 0.05 87 1014.3
20260505185002 56 4 4.0 7.0 0.00 0.46 0.05 87 1014.4
20260505184503 56 4 3.0 7.0 0.00 0.46 0.05 86 1014.3
20260505184003 56 360 2.0 6.0 0.00 0.46 0.05 85 1014.3
20260505183503 56 360 3.0 6.0 0.00 0.47 0.05 86 1014.2
20260505183003 56 360 3.0 8.0 0.00 0.47 0.05 86 1014.2
20260505182524 56 360 3.0 8.0 0.00 0.47 0.05 87 1014.2
20260505182003 55 360 3.0 6.0 0.00 0.47 0.05 87 1014.2
20260505181503 55 360 2.0 5.0 0.00 0.47 0.05 88 1014.2
20260505181003 55 360 2.0 5.0 0.00 0.47 0.05 89 1014.1
20260505180524 55 360 2.0 5.0 0.00 0.47 0.05 89 1014.2
20260505180002 55 360 2.0 6.0 0.00 0.47 0.05 89 1014.1
20260505175502 55 1 3.0 6.0 0.00 0.47 0.05 91 1014.0
20260505175003 54 83 3.0 7.0 0.00 0.47 0.05 91 1014.0
20260505174502 54 169 3.0 7.0 0.00 0.47 0.05 92 1014.0
20260505174002 54 197 1.0 6.0 0.00 0.47 0.05 93 1014.0
20260505173503 54 229 1.0 5.0 0.00 0.47 0.05 94 1013.8
20260505173002 54 272 1.0 5.0 0.00 0.47 0.05 95 1013.8
20260505172524 54 360 0.0 3.0 0.00 0.47 0.05 95 1013.7
20260505172003 53 360 1.0 4.0 0.00 0.47 0.05 95 1013.8
20260505171503 53 340 1.0 4.0 0.00 0.47 0.05 95 1013.8
20260505171024 52 268 1.0 5.0 0.00 0.47 0.05 95 1013.9
20260505170503 52 338 2.0 5.0 0.00 0.47 0.05 95 1014.0
20260505170003 52 360 2.0 4.0 0.00 0.48 0.05 95 1014.0
20260505165503 52 360 3.0 5.0 0.00 0.48 0.05 95 1014.0
20260505165003 52 360 3.0 5.0 0.00 0.48 0.05 95 1013.9
20260505164503 52 360 3.0 5.0 0.00 0.48 0.05 95 1013.9
20260505164024 51 360 3.0 5.0 0.00 0.48 0.05 95 1013.9
20260505163524 51 360 3.0 5.0 0.00 0.48 0.05 95 1013.9
20260505163003 51 360 3.0 5.0 0.00 0.48 0.05 96 1013.9
20260505162503 51 360 3.0 5.0 0.00 0.48 0.05 96 1013.9
20260505162002 51 360 3.0 5.0 0.00 0.48 0.05 96 1013.9
20260505161503 51 360 3.0 5.0 0.00 0.48 0.05 96 1013.8
20260505161003 51 360 2.0 4.0 0.00 0.48 0.05 96 1013.9
20260505160502 51 360 3.0 5.0 0.00 0.48 0.05 96 1013.8
20260505153003 50 161 3.0 6.0 0.00 0.48 0.05 96 1013.7
20260505152503 50 22 3.0 5.0 0.00 0.48 0.05 96 1013.7
20260505152002 50 17 3.0 6.0 0.00 0.48 0.05 96 1013.7
20260505151523 50 13 4.0 6.0 0.00 0.48 0.05 96 1013.5
20260505151002 50 1 4.0 6.0 0.00 0.48 0.05 96 1013.6
20260505150502 50 95 4.0 7.0 0.00 0.48 0.05 96 1013.5
20260505140503 49 178 3.0 6.0 0.00 0.48 0.05 96 1013.1
20260505125002 49 174 2.0 3.0 0.00 0.48 0.05 96 1012.8
20260505124502 49 174 2.0 3.0 0.00 0.48 0.05 96 1012.8
20260505124002 49 174 1.0 3.0 0.00 0.48 0.05 96 1012.7
20260505123502 49 174 1.0 2.0 0.00 0.48 0.05 96 1012.7
20260505123024 49 174 0.0 1.0 0.00 0.48 0.05 96 1012.6
20260505122503 49 0 0.0 0.0 0.00 0.48 0.05 96 1012.6
20260505122003 49 0 0.0 0.0 0.00 0.48 0.05 96 1012.6
20260505121502 49 0 0.0 0.0 0.00 0.48 0.05 95 1012.5
20260505121003 49 0 0.0 0.0 0.00 0.48 0.05 95 1012.6
20260505120503 49 133 1.0 4.0 0.00 0.48 0.05 95 1012.6
20260505120004 49 132 1.0 4.0 0.00 0.48 0.05 96 1012.7
20260505115503 49 127 1.0 3.0 0.00 0.48 0.05 96 1012.7
20260505115003 49 115 1.0 3.0 0.00 0.48 0.05 96 1012.7
20260505114503 49 92 1.0 3.0 0.00 0.48 0.05 96 1012.7
20260505114023 49 76 1.0 2.0 0.00 0.48 0.05 96 1012.8
20260505113502 49 72 0.0 2.0 0.00 0.48 0.05 96 1012.7
20260505113003 49 111 1.0 4.0 0.00 0.48 0.05 96 1012.7
20260505112502 49 117 1.0 4.0 0.00 0.48 0.05 95 1012.8
20260505112023 49 118 1.0 3.0 0.00 0.48 0.05 95 1012.8
20260505111504 49 112 1.0 3.0 0.00 0.48 0.05 95 1012.8
20260505111004 49 108 1.0 3.0 0.00 0.48 0.05 95 1012.8
20260505110504 49 77 1.0 3.0 0.00 0.48 0.05 95 1012.9
20260505102004 49 80 2.0 3.0 0.02 0.48 0.05 95 1012.9
20260505101504 49 89 2.0 4.0 0.02 0.48 0.05 95 1013.0
20260505101004 49 108 1.0 6.0 0.02 0.48 0.05 95 1012.9
20260505100504 49 121 1.0 6.0 0.02 0.48 0.05 95 1012.8
20260505100004 49 121 0.0 3.0 0.02 0.48 0.05 95 1013.0
20260505095504 49 118 1.0 4.0 0.02 0.48 0.05 95 1013.1
20260505095004 49 119 2.0 4.0 0.02 0.48 0.05 95 1013.0
20260505094525 50 122 2.0 4.0 0.03 0.48 0.05 95 1013.0
20260505094004 50 112 1.0 4.0 0.03 0.48 0.05 95 1013.1
20260505093504 50 112 1.0 3.0 0.02 0.47 0.04 95 1013.2
20260505093004 50 129 1.0 3.0 0.02 0.47 0.04 95 1013.3
20260505092504 50 115 1.0 3.0 0.01 0.46 0.03 95 1013.3
20260505092025 50 108 1.0 3.0 0.01 0.46 0.03 95 1013.3
20260505091525 50 106 1.0 3.0 0.01 0.46 0.03 95 1013.4